Alamosa, CO

5:30 AM MDT on August 23, 2019 (GMT -0600)
San Luis Valley Regional / Bergman Field

Weather History for KALS - June, 2019

Change the Weather History Date:

Monday, June 3, 2019

  Actual Average Record
Temperature  
Mean Temperature 58 °F 56 °F  
Max Temperature 74 °F 75 °F 84 °F (2006)
Min Temperature 41 °F 38 °F 23 °F (1936)
Degree Days  
Heating Degree Days 7 9  
Month to date heating degree days 20 27  
Since 1 June heating degree days 20 27  
Since 1 July heating degree days 8445 8453  
Cooling Degree Days 0 0  
Month to date cooling degree days 0 0  
Year to date cooling degree days 0 0  
Since 1 June cooling degree days 0 0  
Growing Degree Days 8 (Base 50)    
Moisture  
Dew Point 36 °F    
Average Humidity 55    
Maximum Humidity 89    
Minimum Humidity 20    
Precipitation  
Precipitation T in 0.02 in 0.56 in (2018)
Month to date precipitation 0.14 0.05  
Year to date precipitation 4.83 2.27  
Snow  
Snow 0.00 in 0.00 in 0.30 in (1952)
Month to date snowfall 0.0 0.0  
Since 1 June snowfall 0.0 0.0  
Since 1 July snowfall 54.9 27.6  
Snow Depth 0.00 in    
Sea Level Pressure  
Sea Level Pressure 29.97 in    
Wind  
Wind Speed 9 mph (SW)    
Max Wind Speed 32 mph    
Max Gust Speed 43 mph    
Visibility 10 miles    
Events Rain , Thunderstorm    
T = Trace of Precipitation, MM = Missing Value Source: NWS Daily Summary

Daily Weather History Graph

Daily Weather History Graph

Search for Another Location

Airport or City:

Astronomy

Jun. 03, 2019 Rise Set
Actual Time 5:43 AM MDT 8:19 PM MDT
Civil Twilight 5:13 AM MDT 8:50 PM MDT
Nautical Twilight 4:34 AM MDT 9:28 PM MDT
Astronomical Twilight 3:52 AM MDT 10:11 PM MDT
Moon 6:05 AM MDT (6/3) 8:48 PM MDT (6/3)
Length of Visible Light 15h 37m
Length of Day
14h 36m
New Moon, 0% of the Moon is Illuminated
Jun 3
New Moon
Jun 10
First Quarter
Jun 17
Full
Jun 25
Last Quarter
Jul 2
New

Hourly Weather History & Observations

Time (MDT) Temp. Windchill Dew Point Humidity Pressure Visibility Wind Dir Wind Speed Gust Speed Precip Events Conditions
12:52 AM 45.0 °F - 37.9 °F 76% 29.93 in 10.0 mi Calm Calm - N/A   Partly Cloudy
1:06 AM 46.9 °F - 39.0 °F 74% 30.18 in 10.0 mi South 6.9 mph - N/A Thunderstorm Mostly Cloudy
1:21 AM 46.9 °F - 39.9 °F 77% 30.19 in 10.0 mi Variable 3.5 mph - 0.00 in Rain Light Rain
1:52 AM 48.0 °F - 39.9 °F 74% 29.91 in 10.0 mi SSE 6.9 mph - 0.00 in   Mostly Cloudy
2:52 AM 46.9 °F - 39.9 °F 77% 29.93 in 10.0 mi SE 8.1 mph - N/A   Overcast
3:52 AM 45.0 °F 42.6 °F 39.0 °F 80% 29.94 in 10.0 mi NW 4.6 mph - N/A   Clear
4:52 AM 45.0 °F - 37.9 °F 76% 29.98 in 10.0 mi Calm Calm - N/A   Clear
5:52 AM 43.0 °F 40.3 °F 39.0 °F 86% 30.02 in 10.0 mi NNW 4.6 mph - N/A   Partly Cloudy
6:52 AM 43.0 °F - 39.0 °F 86% 30.02 in 10.0 mi Calm Calm - N/A   Scattered Clouds
7:52 AM 48.9 °F - 41.0 °F 74% 30.01 in 10.0 mi Calm Calm - N/A   Clear
8:52 AM 55.9 °F - 39.9 °F 55% 29.99 in 10.0 mi SSW 3.5 mph - N/A   Clear
9:52 AM 61.0 °F - 44.1 °F 54% 30.00 in 10.0 mi SW 6.9 mph - N/A   Clear
10:52 AM 66.0 °F - 46.0 °F 48% 29.97 in 10.0 mi South 8.1 mph - N/A   Clear
11:52 AM 66.9 °F - 42.1 °F 40% 29.95 in 10.0 mi Variable 6.9 mph - N/A   Clear
12:52 PM 70.0 °F - 28.9 °F 22% 29.94 in 10.0 mi SSE 13.8 mph - N/A   Partly Cloudy
1:52 PM 69.1 °F - 34.0 °F 27% 29.92 in 10.0 mi South 19.6 mph 29.9 mph N/A   Partly Cloudy
2:52 PM 71.1 °F - 28.0 °F 20% 29.91 in 10.0 mi South 16.1 mph 28.8 mph N/A   Partly Cloudy
3:52 PM 72.0 °F - 30.0 °F 21% 29.89 in 10.0 mi WSW 16.1 mph 29.9 mph N/A   Clear
4:52 PM 69.1 °F - 33.1 °F 26% 29.90 in 10.0 mi WSW 12.7 mph - N/A   Clear
5:23 PM 69.1 °F - 27.0 °F 21% 30.13 in 10.0 mi WNW 26.5 mph 42.6 mph N/A   Clear
5:52 PM 64.9 °F - 28.9 °F 26% 29.93 in 10.0 mi NW 16.1 mph - N/A   Clear
6:52 PM 64.9 °F - 28.9 °F 26% 29.94 in 10.0 mi West 15.0 mph 25.3 mph N/A   Mostly Cloudy
7:52 PM 63.0 °F - 28.9 °F 28% 29.92 in 10.0 mi South 13.8 mph 20.7 mph N/A   Partly Cloudy
8:52 PM 60.1 °F - 30.9 °F 33% 29.90 in 10.0 mi SSW 16.1 mph 26.5 mph N/A   Clear
9:52 PM 57.9 °F - 32.0 °F 37% 29.93 in 10.0 mi WNW 8.1 mph - N/A   Scattered Clouds
10:52 PM 55.9 °F - 32.0 °F 40% 29.94 in 10.0 mi West 8.1 mph - N/A   Mostly Cloudy
11:52 PM 53.1 °F - 35.1 °F 50% 29.96 in 10.0 mi SSE 4.6 mph - N/A   Mostly Cloudy